DLH648 UAAA-UACC

Flight info

Callsign DLH648
Flight time 1h 20m
Altitude 40000
Route ETEDA1B ETEDA W333 BANOS BANOS1D
Aircraft A333/H-SDE2E3FGHIJ3J4J5LM1OP2RWXYZ/LB1D1

Departure

Time 2026-04-24 10:57
Airport Almaty International Airport (UAAA)

Arrival

Time 2026-04-24 12:18
Airport Nursultan Nazarbayev International Airport (UACC)
Time Latitude Longitude Altitude Speed Heading
2026-04-24 10:20 43.34914 77.01345 2233 ft 0 kts 245°
2026-04-24 10:47 43.34920 77.01363 2230 ft 4 kts 241°
2026-04-24 10:47 43.34935 77.01394 2229 ft 4 kts 231°
2026-04-24 10:48 43.34953 77.01420 2233 ft 4 kts 215°
2026-04-24 10:48 43.34976 77.01435 2226 ft 4 kts 179°
2026-04-24 10:48 43.34990 77.01432 2233 ft 1 kts 156°
2026-04-24 10:48 43.34991 77.01431 2233 ft 0 kts 156°
2026-04-24 10:52 43.34980 77.01438 2233 ft 3 kts 156°
2026-04-24 10:52 43.34953 77.01454 2229 ft 5 kts 156°
2026-04-24 10:53 43.34914 77.01477 2225 ft 7 kts 156°
2026-04-24 10:53 43.34860 77.01504 2229 ft 9 kts 171°
2026-04-24 10:53 43.34819 77.01552 2229 ft 8 kts 106°
2026-04-24 10:53 43.34814 77.01641 2225 ft 11 kts 92°
2026-04-24 10:54 43.34809 77.01750 2229 ft 12 kts 94°
2026-04-24 10:54 43.34802 77.01879 2231 ft 15 kts 94°
2026-04-24 10:54 43.34795 77.02027 2232 ft 16 kts 94°
2026-04-24 10:54 43.34789 77.02172 2232 ft 13 kts 94°
2026-04-24 10:55 43.34784 77.02273 2229 ft 5 kts 94°
2026-04-24 10:55 43.34781 77.02334 2232 ft 7 kts 94°
2026-04-24 10:55 43.34778 77.02413 2233 ft 9 kts 94°
2026-04-24 10:55 43.34773 77.02505 2226 ft 11 kts 94°
2026-04-24 10:56 43.34773 77.02584 2225 ft 5 kts 75°
2026-04-24 10:56 43.34790 77.02624 2225 ft 0 kts 56°
2026-04-24 10:56 43.34792 77.02629 2223 ft 5 kts 56°
2026-04-24 10:56 43.34909 77.02867 2225 ft 65 kts 56°
2026-04-24 10:57 43.35298 77.03651 2226 ft 133 kts 56°
2026-04-24 10:57 43.35929 77.04924 2381 ft 181 kts 56°
2026-04-24 10:57 43.36653 77.06387 3284 ft 186 kts 54°
2026-04-24 10:57 43.37422 77.07922 4022 ft 208 kts 54°
2026-04-24 10:58 43.38310 77.09662 4521 ft 236 kts 54°
2026-04-24 10:58 43.39303 77.11582 5035 ft 256 kts 54°
2026-04-24 10:58 43.40325 77.13615 5973 ft 261 kts 57°
2026-04-24 10:58 43.41416 77.15669 6860 ft 272 kts 47°
2026-04-24 10:59 43.42987 77.17069 7747 ft 280 kts 15°
2026-04-24 10:59 43.44928 77.17099 8662 ft 284 kts 342°
2026-04-24 10:59 43.46705 77.15974 9798 ft 281 kts 328°
2026-04-24 10:59 43.48429 77.14639 10637 ft 291 kts 328°
2026-04-24 11:00 43.50264 77.13208 11071 ft 315 kts 328°
2026-04-24 11:00 43.52197 77.11641 11685 ft 327 kts 321°
2026-04-24 11:00 43.53752 77.09385 12539 ft 327 kts 301°
2026-04-24 11:00 43.55104 77.06849 13485 ft 333 kts 312°
2026-04-24 11:01 43.57085 77.05111 14353 ft 345 kts 333°
2026-04-24 11:01 43.59350 77.03921 15183 ft 350 kts 335°
2026-04-24 11:01 43.61635 77.02698 15984 ft 354 kts 333°
2026-04-24 11:01 43.63913 77.01361 16782 ft 358 kts 331°
2026-04-24 11:02 43.66190 76.99934 17599 ft 361 kts 329°
2026-04-24 11:02 43.68474 76.98449 18411 ft 365 kts 329°
2026-04-24 11:02 43.70780 76.96916 19064 ft 370 kts 328°
2026-04-24 11:02 43.73109 76.95351 19727 ft 375 kts 328°
2026-04-24 11:03 43.75465 76.93757 20374 ft 379 kts 328°
2026-04-24 11:03 43.77846 76.92142 21029 ft 383 kts 327°
2026-04-24 11:03 43.80251 76.90507 21669 ft 387 kts 327°
2026-04-24 11:03 43.82680 76.88851 22305 ft 391 kts 327°
2026-04-24 11:04 43.85137 76.87175 22925 ft 396 kts 327°
2026-04-24 11:04 43.87622 76.85478 23559 ft 400 kts 327°
2026-04-24 11:04 43.90123 76.83768 24117 ft 403 kts 327°
2026-04-24 11:04 43.92643 76.82044 24641 ft 406 kts 327°
2026-04-24 11:05 43.95184 76.80304 25163 ft 409 kts 327°
2026-04-24 11:05 43.97740 76.78552 25672 ft 411 kts 327°
2026-04-24 11:05 44.00317 76.76783 26173 ft 414 kts 327°
2026-04-24 11:05 44.02912 76.75001 26662 ft 417 kts 327°
2026-04-24 11:06 44.05524 76.73204 27135 ft 421 kts 327°
2026-04-24 11:06 44.08162 76.71387 27600 ft 425 kts 327°
2026-04-24 11:06 44.10821 76.69556 28091 ft 427 kts 327°
2026-04-24 11:06 44.13492 76.67714 28578 ft 430 kts 327°
2026-04-24 11:07 44.18896 76.63980 29515 ft 436 kts 327°
2026-04-24 11:07 44.20700 76.62732 29825 ft 438 kts 327°
2026-04-24 11:07 44.24371 76.60190 30376 ft 443 kts 327°
2026-04-24 11:08 44.26242 76.58892 30636 ft 445 kts 327°
2026-04-24 11:08 44.29927 76.56336 31190 ft 448 kts 327°
2026-04-24 11:08 44.31776 76.55053 31451 ft 449 kts 327°
2026-04-24 11:08 44.34595 76.53133 31848 ft 453 kts 329°
2026-04-24 11:09 44.38456 76.50760 32561 ft 453 kts 331°
2026-04-24 11:09 44.41359 76.49082 33164 ft 450 kts 332°
2026-04-24 11:09 44.44255 76.47433 33742 ft 448 kts 332°
2026-04-24 11:09 44.47134 76.45792 34231 ft 446 kts 331°
2026-04-24 11:10 44.49077 76.44677 34516 ft 446 kts 331°
2026-04-24 11:10 44.52876 76.42478 34992 ft 447 kts 331°
2026-04-24 11:10 44.54776 76.41369 35219 ft 447 kts 331°
2026-04-24 11:10 44.57646 76.39686 35594 ft 448 kts 331°
2026-04-24 11:11 44.60522 76.37995 35940 ft 448 kts 331°
2026-04-24 11:11 44.64371 76.35727 36403 ft 449 kts 330°
2026-04-24 11:11 44.66278 76.34603 36633 ft 449 kts 330°
2026-04-24 11:11 44.69158 76.32903 36964 ft 450 kts 330°
2026-04-24 11:12 44.73021 76.30621 37415 ft 450 kts 330°
2026-04-24 11:12 44.75910 76.28913 37785 ft 450 kts 330°
2026-04-24 11:12 44.78797 76.27204 38109 ft 451 kts 330°
2026-04-24 11:12 44.81690 76.25491 38449 ft 451 kts 330°
2026-04-24 11:13 44.84585 76.23774 38761 ft 451 kts 330°
2026-04-24 11:13 44.87479 76.22056 39011 ft 451 kts 330°
2026-04-24 11:13 44.90370 76.20339 39276 ft 451 kts 330°
2026-04-24 11:13 44.92282 76.19201 39450 ft 451 kts 330°
2026-04-24 11:14 44.95170 76.17482 39722 ft 450 kts 330°
2026-04-24 11:14 44.98055 76.15762 39969 ft 450 kts 330°
2026-04-24 11:14 45.03879 76.12277 40075 ft 460 kts 330°
2026-04-24 11:15 45.09823 76.08715 40070 ft 465 kts 331°
2026-04-24 11:15 45.15781 76.05148 40080 ft 464 kts 331°
2026-04-24 11:16 45.21728 76.01578 40074 ft 464 kts 331°
2026-04-24 11:16 45.27670 75.97998 40077 ft 464 kts 331°
2026-04-24 11:17 45.33610 75.94411 40080 ft 464 kts 331°
2026-04-24 11:17 45.39556 75.90811 40066 ft 465 kts 331°
2026-04-24 11:18 45.45504 75.87202 40082 ft 465 kts 331°
2026-04-24 11:18 45.51452 75.83585 40075 ft 465 kts 331°
2026-04-24 11:19 45.57359 75.79985 40075 ft 465 kts 331°
2026-04-24 11:19 45.63299 75.76357 40072 ft 465 kts 331°
2026-04-24 11:20 45.69242 75.72718 40081 ft 465 kts 331°
2026-04-24 11:20 45.75181 75.69074 40069 ft 464 kts 331°
2026-04-24 11:21 45.81119 75.65424 40069 ft 464 kts 331°
2026-04-24 11:21 45.87054 75.61767 40079 ft 464 kts 331°
2026-04-24 11:22 45.92989 75.58101 40070 ft 464 kts 331°
2026-04-24 11:22 45.98920 75.54430 40067 ft 464 kts 331°
2026-04-24 11:23 46.04852 75.50749 40067 ft 464 kts 331°
2026-04-24 11:23 46.10784 75.47060 40064 ft 464 kts 330°
2026-04-24 11:24 46.16720 75.43359 40067 ft 465 kts 330°
2026-04-24 11:24 46.22653 75.39654 40067 ft 465 kts 331°
2026-04-24 11:25 46.28592 75.35959 40067 ft 465 kts 331°
2026-04-24 11:25 46.34530 75.32266 40067 ft 465 kts 331°
2026-04-24 11:26 46.40470 75.28564 40067 ft 465 kts 331°
2026-04-24 11:26 46.46408 75.24851 40071 ft 465 kts 331°
2026-04-24 11:27 46.52344 75.21130 40066 ft 465 kts 331°
2026-04-24 11:27 46.58275 75.17403 40067 ft 465 kts 331°
2026-04-24 11:28 46.64167 75.13691 40079 ft 465 kts 331°
2026-04-24 11:28 46.70096 75.09948 40067 ft 464 kts 331°
2026-04-24 11:29 46.76020 75.06199 40066 ft 464 kts 331°
2026-04-24 11:29 46.81942 75.02442 40102 ft 464 kts 331°
2026-04-24 11:30 46.87864 74.98681 40066 ft 464 kts 331°
2026-04-24 11:30 46.93887 74.95199 40064 ft 466 kts 334°
2026-04-24 11:31 46.99974 74.91900 40062 ft 466 kts 334°
2026-04-24 11:31 47.06058 74.88597 40062 ft 466 kts 334°
2026-04-24 11:32 47.12128 74.85256 40060 ft 466 kts 334°
2026-04-24 11:32 47.18195 74.81891 40059 ft 466 kts 334°
2026-04-24 11:33 47.24259 74.78514 40058 ft 466 kts 334°
2026-04-24 11:33 47.30321 74.75134 40055 ft 466 kts 334°
2026-04-24 11:34 47.36384 74.71745 40054 ft 466 kts 334°
2026-04-24 11:34 47.42445 74.68349 40064 ft 466 kts 334°
2026-04-24 11:35 47.48503 74.64946 40053 ft 466 kts 334°
2026-04-24 11:35 47.54563 74.61536 40053 ft 466 kts 334°
2026-04-24 11:36 47.60625 74.58137 40054 ft 466 kts 334°
2026-04-24 11:36 47.66691 74.54735 40054 ft 466 kts 334°
2026-04-24 11:37 47.72753 74.51327 40052 ft 466 kts 334°
2026-04-24 11:37 47.78768 74.47936 40050 ft 466 kts 334°
2026-04-24 11:38 47.84824 74.44512 40052 ft 465 kts 334°
2026-04-24 11:38 47.90872 74.41083 40050 ft 465 kts 334°
2026-04-24 11:39 47.96916 74.37648 40048 ft 465 kts 334°
2026-04-24 11:39 48.02960 74.34204 40065 ft 465 kts 334°
2026-04-24 11:40 48.09003 74.30752 40048 ft 465 kts 334°
2026-04-24 11:40 48.15043 74.27301 40051 ft 465 kts 334°
2026-04-24 11:41 48.21095 74.23872 40052 ft 465 kts 334°
2026-04-24 11:41 48.27150 74.20444 40053 ft 465 kts 334°
2026-04-24 11:42 48.33198 74.17009 40056 ft 465 kts 334°
2026-04-24 11:42 48.39247 74.13561 40050 ft 465 kts 334°
2026-04-24 11:43 48.45296 74.10105 40059 ft 465 kts 334°
2026-04-24 11:43 48.51339 74.06642 40055 ft 465 kts 334°
2026-04-24 11:44 48.57384 74.03170 40054 ft 465 kts 334°
2026-04-24 11:44 48.63431 73.99687 40075 ft 465 kts 334°
2026-04-24 11:45 48.69473 73.96198 40058 ft 465 kts 334°
2026-04-24 11:45 48.75516 73.92700 40058 ft 465 kts 334°
2026-04-24 11:46 48.81554 73.89196 40054 ft 465 kts 334°
2026-04-24 11:46 48.87594 73.85681 40058 ft 465 kts 334°
2026-04-24 11:47 48.93633 73.82158 40054 ft 465 kts 334°
2026-04-24 11:47 48.99631 73.78649 40056 ft 465 kts 333°
2026-04-24 11:48 49.05665 73.75097 40065 ft 465 kts 333°
2026-04-24 11:48 49.11695 73.71534 40056 ft 465 kts 333°
2026-04-24 11:49 49.17728 73.67961 40055 ft 465 kts 333°
2026-04-24 11:49 49.23756 73.64382 40053 ft 465 kts 333°
2026-04-24 11:50 49.29774 73.60802 39870 ft 459 kts 333°
2026-04-24 11:50 49.32729 73.59046 39631 ft 452 kts 333°
2026-04-24 11:50 49.35646 73.57309 39409 ft 448 kts 333°
2026-04-24 11:51 49.38543 73.55578 39193 ft 447 kts 333°
2026-04-24 11:51 49.41440 73.53841 38970 ft 447 kts 333°
2026-04-24 11:51 49.44336 73.52100 38750 ft 447 kts 333°
2026-04-24 11:51 49.47231 73.50360 38511 ft 447 kts 333°
2026-04-24 11:52 49.50127 73.48617 38233 ft 447 kts 333°
2026-04-24 11:52 49.53020 73.46875 37956 ft 446 kts 333°
2026-04-24 11:52 49.55909 73.45134 37686 ft 446 kts 334°
2026-04-24 11:52 49.58803 73.43389 37418 ft 446 kts 334°
2026-04-24 11:53 49.61693 73.41643 37150 ft 446 kts 334°
2026-04-24 11:53 49.64583 73.39895 36888 ft 446 kts 334°
2026-04-24 11:53 49.67419 73.38000 36628 ft 441 kts 326°
2026-04-24 11:53 49.69931 73.35355 36394 ft 434 kts 316°
2026-04-24 11:54 49.72210 73.32302 36139 ft 433 kts 314°
2026-04-24 11:54 49.74437 73.29161 35891 ft 433 kts 313°
2026-04-24 11:54 49.76623 73.26033 35464 ft 434 kts 314°
2026-04-24 11:54 49.78840 73.22845 34870 ft 435 kts 314°
2026-04-24 11:55 49.81052 73.19656 34335 ft 434 kts 314°
2026-04-24 11:55 49.83254 73.16477 33736 ft 433 kts 314°
2026-04-24 11:55 49.85452 73.13298 33035 ft 432 kts 314°
2026-04-24 11:55 49.87652 73.10113 32347 ft 433 kts 314°
2026-04-24 11:56 49.89850 73.06924 31624 ft 433 kts 314°
2026-04-24 11:56 49.92051 73.03728 30908 ft 433 kts 314°
2026-04-24 11:56 49.94247 73.00535 30292 ft 432 kts 314°
2026-04-24 11:56 49.96431 72.97356 29637 ft 429 kts 314°
2026-04-24 11:57 49.98599 72.94195 29003 ft 426 kts 314°
2026-04-24 11:57 50.00751 72.91054 28385 ft 422 kts 314°
2026-04-24 11:57 50.02883 72.87938 27786 ft 419 kts 314°
2026-04-24 11:57 50.04996 72.84847 27205 ft 415 kts 314°
2026-04-24 11:58 50.07090 72.81778 26623 ft 412 kts 314°
2026-04-24 11:58 50.09165 72.78733 26084 ft 408 kts 314°
2026-04-24 11:58 50.11223 72.75709 25532 ft 405 kts 314°
2026-04-24 11:58 50.13263 72.72707 24995 ft 402 kts 314°
2026-04-24 11:59 50.15291 72.69720 24435 ft 400 kts 314°
2026-04-24 11:59 50.17307 72.66757 23906 ft 397 kts 315°
2026-04-24 11:59 50.19494 72.64130 23318 ft 398 kts 326°
2026-04-24 11:59 50.21908 72.62048 22698 ft 396 kts 330°
2026-04-24 12:00 50.24358 72.60115 22097 ft 393 kts 331°
2026-04-24 12:00 50.26796 72.58211 21503 ft 390 kts 331°
2026-04-24 12:00 50.29213 72.56317 20930 ft 387 kts 331°
2026-04-24 12:00 50.31611 72.54430 20384 ft 384 kts 330°
2026-04-24 12:01 50.33985 72.52555 20082 ft 382 kts 330°
2026-04-24 12:01 50.36359 72.50674 20034 ft 383 kts 330°
2026-04-24 12:01 50.38736 72.48788 20011 ft 382 kts 330°
2026-04-24 12:01 50.41105 72.46907 19519 ft 381 kts 330°
2026-04-24 12:02 50.43463 72.45032 18964 ft 379 kts 330°
2026-04-24 12:02 50.45803 72.43168 18438 ft 376 kts 330°
2026-04-24 12:02 50.48125 72.41319 17848 ft 373 kts 330°
2026-04-24 12:02 50.49652 72.40100 17470 ft 370 kts 330°
2026-04-24 12:03 50.51937 72.38276 17101 ft 367 kts 330°
2026-04-24 12:03 50.54946 72.35868 17027 ft 365 kts 330°
2026-04-24 12:03 50.56470 72.34648 17019 ft 363 kts 330°
2026-04-24 12:03 50.58720 72.32844 17021 ft 363 kts 330°
2026-04-24 12:04 50.61698 72.30454 17020 ft 364 kts 330°
2026-04-24 12:04 50.63958 72.28640 16831 ft 364 kts 330°
2026-04-24 12:04 50.65487 72.27412 16363 ft 366 kts 330°
2026-04-24 12:04 50.67745 72.25596 15787 ft 363 kts 330°
2026-04-24 12:05 50.69980 72.23796 15261 ft 359 kts 329°
2026-04-24 12:05 50.72191 72.22014 14725 ft 355 kts 329°
2026-04-24 12:05 50.74384 72.20243 14167 ft 353 kts 329°
2026-04-24 12:05 50.76562 72.18482 13590 ft 350 kts 329°
2026-04-24 12:06 50.78724 72.16732 12975 ft 348 kts 329°
2026-04-24 12:06 50.80873 72.14991 12351 ft 346 kts 329°
2026-04-24 12:06 50.83010 72.13257 11754 ft 344 kts 329°
2026-04-24 12:06 50.85125 72.11540 11339 ft 337 kts 329°
2026-04-24 12:07 50.87170 72.09882 11147 ft 324 kts 328°
2026-04-24 12:07 50.89134 72.08289 10959 ft 311 kts 328°
2026-04-24 12:07 50.91034 72.06743 10704 ft 303 kts 328°
2026-04-24 12:07 50.92896 72.05222 10329 ft 300 kts 328°
2026-04-24 12:08 50.94742 72.03713 10023 ft 298 kts 327°
2026-04-24 12:08 50.96579 72.02210 9776 ft 296 kts 327°
2026-04-24 12:08 50.98384 72.00737 9556 ft 288 kts 328°
2026-04-24 12:08 51.00156 71.99288 9248 ft 285 kts 328°
2026-04-24 12:09 51.01916 71.97846 8881 ft 284 kts 328°
2026-04-24 12:09 51.03672 71.96407 8521 ft 284 kts 328°
2026-04-24 12:09 51.05425 71.94968 8165 ft 283 kts 328°
2026-04-24 12:09 51.07173 71.93531 7849 ft 284 kts 328°
2026-04-24 12:10 51.08934 71.92082 7544 ft 285 kts 329°
2026-04-24 12:10 51.10688 71.90642 7228 ft 283 kts 329°
2026-04-24 12:10 51.12429 71.89212 6928 ft 280 kts 328°
2026-04-24 12:11 51.15542 71.85698 6186 ft 274 kts 312°
2026-04-24 12:11 51.16873 71.83587 5934 ft 265 kts 311°
2026-04-24 12:11 51.18149 71.81523 5637 ft 260 kts 311°
2026-04-24 12:11 51.19288 71.79330 5302 ft 252 kts 295°
2026-04-24 12:12 51.19625 71.76728 5105 ft 236 kts 262°
2026-04-24 12:12 51.18988 71.73572 5015 ft 218 kts 242°
2026-04-24 12:12 51.18469 71.72236 5015 ft 210 kts 233°
2026-04-24 12:12 51.17542 71.70557 5008 ft 195 kts 226°
2026-04-24 12:13 51.16596 71.69097 4863 ft 184 kts 225°
2026-04-24 12:13 51.15698 71.67697 4603 ft 178 kts 225°
2026-04-24 12:13 51.14827 71.66318 4332 ft 175 kts 226°
2026-04-24 12:13 51.13967 71.64965 4077 ft 172 kts 225°
2026-04-24 12:14 51.13120 71.63635 3837 ft 170 kts 225°
2026-04-24 12:14 51.12293 71.62336 3623 ft 164 kts 225°
2026-04-24 12:14 51.11492 71.61078 3417 ft 160 kts 225°
2026-04-24 12:14 51.10705 71.59845 3198 ft 156 kts 226°
2026-04-24 12:15 51.09965 71.58684 2998 ft 144 kts 226°
2026-04-24 12:15 51.09268 71.57592 2814 ft 136 kts 226°
2026-04-24 12:15 51.08613 71.56565 2646 ft 130 kts 226°
2026-04-24 12:15 51.07993 71.55583 2462 ft 122 kts 226°
2026-04-24 12:16 51.07398 71.54640 2327 ft 121 kts 225°
2026-04-24 12:16 51.06789 71.53676 2170 ft 126 kts 224°
2026-04-24 12:16 51.06154 71.52706 2006 ft 126 kts 226°
2026-04-24 12:16 51.05535 71.51753 1815 ft 124 kts 227°
2026-04-24 12:17 51.04918 71.50788 1631 ft 124 kts 228°
2026-04-24 12:17 51.04306 71.49825 1459 ft 123 kts 227°
2026-04-24 12:17 51.03703 71.48880 1291 ft 121 kts 226°
2026-04-24 12:17 51.03104 71.47947 1174 ft 117 kts 226°
2026-04-24 12:18 51.02628 71.47198 1167 ft 69 kts 225°
2026-04-24 12:18 51.02379 71.46811 1166 ft 44 kts 224°
2026-04-24 12:18 51.02171 71.46484 1165 ft 40 kts 224°
2026-04-24 12:18 51.01978 71.46184 1167 ft 35 kts 224°
2026-04-24 12:19 51.01825 71.45946 1167 ft 30 kts 224°
2026-04-24 12:19 51.01709 71.45765 1166 ft 15 kts 225°
2026-04-24 12:19 51.01691 71.45668 1166 ft 8 kts 304°
2026-04-24 12:19 51.01742 71.45581 1166 ft 13 kts 314°
2026-04-24 12:20 51.01799 71.45495 1164 ft 7 kts 330°
2026-04-24 12:20 51.01835 71.45507 1163 ft 6 kts 33°
2026-04-24 12:20 51.01880 71.45570 1164 ft 10 kts 42°
2026-04-24 12:20 51.01935 71.45658 1164 ft 13 kts 45°
2026-04-24 12:21 51.02006 71.45768 1163 ft 16 kts 44°
2026-04-24 12:21 51.02091 71.45899 1164 ft 18 kts 44°
2026-04-24 12:21 51.02189 71.46052 1164 ft 21 kts 45°
2026-04-24 12:21 51.02293 71.46215 1165 ft 18 kts 44°
2026-04-24 12:22 51.02388 71.46364 1166 ft 20 kts 45°
2026-04-24 12:22 51.02486 71.46516 1165 ft 19 kts 44°
2026-04-24 12:22 51.02573 71.46652 1166 ft 14 kts 44°
2026-04-24 12:22 51.02628 71.46715 1165 ft 7 kts
2026-04-24 12:23 51.02669 71.46684 1164 ft 6 kts 317°
2026-04-24 12:23 51.02701 71.46631 1163 ft 7 kts 319°
2026-04-24 12:23 51.02742 71.46636 1164 ft 7 kts 33°
2026-04-24 12:23 51.02767 71.46652 1164 ft 2 kts
2026-04-24 12:24 51.02782 71.46642 1164 ft 2 kts 330°
2026-04-24 12:24 51.02793 71.46623 1166 ft 3 kts 307°
2026-04-24 12:24 51.02813 71.46585 1164 ft 5 kts 314°
2026-04-24 12:24 51.02828 71.46562 1164 ft 2 kts 315°
2026-04-24 12:25 51.02832 71.46555 1163 ft 0 kts 315°